STARLINK-32208 (60598 NORAD) Tracking and Keplerian Element Data

This shows tracking and keplerian element data for the satellite.

Feedback or suggestion? Click here.




ElementValue
Catalog60598
NameSTARLINK-32208
Epoch Orbit939
Epoch Day286.10175244
Epoch Year2024
RAAN173.6695
Inclination53.1597
Eccentricity0.0001447
Argument of Perigee106.1049
Mean Anonmoly254.0116
Mean Motion15.3960765
Decay Rate-5.103E-05
L11 60598U 24150R 24286.10175244 -.00005103 00000+0 -11771-3 0 9996
L22 60598 53.1597 173.6695 0001447 106.1049 254.0116 15.39607650 9396



Live tracking and technical data element details for STARLINK-32208 (NORAD 60598). STARLINK-32208 can be tracked NOW for your location showing map with azimuth and elevation plus other details from your city location.







IsCatalogInMostPopularTable: catalog: 60598, numindb: 7
Update: records affected: 1



GetName: 60598 STARLINK-32208

Hit Count: updated at: Tue, 03 Dec 2024 01:58:46 GMT